Asheville, NC

12:42 PM EDT on October 17, 2019 (GMT -0400)
Asheville Regional

Weather History for KAVL - May, 2019

Change the Weather History Date:

Saturday, May 25, 2019

  Actual Average Record
Temperature  
Mean Temperature 76 °F 65 °F  
Max Temperature 89 °F 77 °F 89 °F (1896)
Min Temperature 62 °F 54 °F 39 °F (1925)
Degree Days  
Heating Degree Days 0 2  
Month to date heating degree days 25 99  
Since 1 July heating degree days 3552 4171  
Cooling Degree Days 11 3  
Month to date cooling degree days 100 35  
Year to date cooling degree days 117 43  
Growing Degree Days 26 (Base 50)    
Moisture  
Dew Point 61 °F    
Average Humidity 65    
Maximum Humidity 93    
Minimum Humidity 37    
Precipitation  
Precipitation 0.00 in 0.12 in 1.11 in (1939)
Month to date precipitation 3.35 2.90  
Year to date precipitation 27.14 17.49  
Snow  
Snow 0.00 in 0.00 in T in (1979)
Month to date snowfall 0.0 0.0  
Since 1 July snowfall 11.4 9.9  
Snow Depth 0.00 in    
Sea Level Pressure  
Sea Level Pressure 30.13 in    
Wind  
Wind Speed 3 mph (NW)    
Max Wind Speed 14 mph    
Max Gust Speed 18 mph    
Visibility 10 miles    
Events      
T = Trace of Precipitation, MM = Missing Value Source: NWS Daily Summary

Daily Weather History Graph

Daily Weather History Graph

Search for Another Location

Airport or City:

Astronomy

May. 25, 2019 Rise Set
Actual Time 6:19 AM EDT 8:35 PM EDT
Civil Twilight 5:50 AM EDT 9:04 PM EDT
Nautical Twilight 5:14 AM EDT 9:39 PM EDT
Astronomical Twilight 4:36 AM EDT 10:18 PM EDT
Moon 1:37 AM EDT (5/25) 12:14 PM EDT (5/25)
Length of Visible Light 15h 13m
Length of Day
14h 15m
Waning Gibbous, 60% of the Moon is Illuminated
May 25
Waning Gibbous
May 26
Last Quarter
Jun 3
New
Jun 10
First Quarter
Jun 17
Full

Hourly Weather History & Observations

Time (EDT) Temp. Heat Index Dew Point Humidity Pressure Visibility Wind Dir Wind Speed Gust Speed Precip Events Conditions
12:54 AM 66.9 °F - 61.0 °F 81% 30.12 in 10.0 mi Calm Calm - N/A   Clear
1:54 AM 64.9 °F - 61.0 °F 87% 30.11 in 10.0 mi SW 3.5 mph - N/A   Clear
2:54 AM 63.0 °F - 60.1 °F 90% 30.12 in 10.0 mi Calm Calm - N/A   Clear
3:54 AM 63.0 °F - 60.1 °F 90% 30.12 in 10.0 mi Calm Calm - N/A   Clear
4:54 AM 64.0 °F - 59.0 °F 84% 30.14 in 10.0 mi North 3.5 mph - N/A   Clear
5:54 AM 62.1 °F - 59.0 °F 90% 30.15 in 8.0 mi SW 3.5 mph - N/A   Clear
6:54 AM 62.1 °F - 59.0 °F 90% 30.17 in 8.0 mi Calm Calm - N/A   Clear
7:54 AM 66.0 °F - 60.1 °F 81% 30.17 in 9.0 mi Calm Calm - N/A   Clear
8:54 AM 72.0 °F - 61.0 °F 68% 30.18 in 10.0 mi NNW 5.8 mph - N/A   Clear
9:54 AM 75.9 °F - 63.0 °F 64% 30.17 in 10.0 mi Calm Calm - N/A   Clear
10:54 AM 81.0 °F 81.9 °F 62.1 °F 52% 30.17 in 10.0 mi Variable 5.8 mph - N/A   Clear
11:54 AM 82.0 °F 83.0 °F 62.1 °F 51% 30.17 in 10.0 mi Calm Calm - N/A   Mostly Cloudy
1:54 PM 88.0 °F 87.9 °F 61.0 °F 40% 30.13 in 10.0 mi Calm Calm - N/A   Partly Cloudy
2:54 PM 89.1 °F 88.2 °F 59.0 °F 36% 30.11 in 10.0 mi NNW 4.6 mph - N/A   Clear
3:54 PM 86.0 °F 86.3 °F 62.1 °F 44% 30.09 in 10.0 mi Variable 3.5 mph - N/A   Partly Cloudy
4:54 PM 86.0 °F 85.7 °F 60.1 °F 41% 30.09 in 10.0 mi South 3.5 mph - N/A   Mostly Cloudy
5:54 PM 88.0 °F 88.4 °F 62.1 °F 42% 30.09 in 10.0 mi Variable 3.5 mph - N/A   Clear
6:54 PM 84.9 °F 86.1 °F 64.0 °F 49% 30.09 in 10.0 mi NNW 9.2 mph - N/A   Scattered Clouds
7:54 PM 82.0 °F 83.0 °F 62.1 °F 51% 30.11 in 10.0 mi NW 5.8 mph - N/A   Clear
8:54 PM 79.0 °F - 61.0 °F 54% 30.10 in 10.0 mi NNW 3.5 mph - N/A   Clear
9:54 PM 75.9 °F - 62.1 °F 62% 30.12 in 10.0 mi North 3.5 mph - N/A   Clear
10:54 PM 73.9 °F - 63.0 °F 68% 30.13 in 10.0 mi NNW 5.8 mph - N/A   Clear
11:54 PM 70.0 °F - 63.0 °F 78% 30.13 in 10.0 mi Calm Calm - N/A   Clear